AK6MW Weather Reports


time (UTC)temp
F
wind
direction
speed
knots
gust
knots
rain 1hr
in
rain 24hr
in
rain mn
in
humidity
%
barometer
mb
20260506175849 56 0.0 0.0 0.00 0.00 0.00 81 1021.1
20260506174852 54 0.0 0.0 0.00 0.00 0.00 81 1021.1
20260506173849 54 0.0 0.0 0.00 0.00 0.00 79 1020.9
20260506172849 54 0.0 0.0 0.00 0.00 0.00 80 1020.9
20260506171850 54 0.0 0.0 0.00 0.00 0.00 79 1020.9
20260506170910 55 0.0 0.0 0.00 0.00 0.00 78 1020.8
20260506165849 55 0.0 0.0 0.00 0.00 0.00 75 1020.8
20260506164849 54 0.0 0.0 0.00 0.00 0.00 78 1020.8
20260506163909 53 0.0 0.0 0.00 0.00 0.00 76 1020.8
20260506162850 54 0.0 0.0 0.00 0.00 0.00 74 1021.1
20260506161931 55 0.0 0.0 0.00 0.00 0.00 78 1020.9
20260506160910 53 0.0 0.0 0.00 0.00 0.00 82 1020.9
20260506155849 52 0.0 0.0 0.00 0.00 0.00 84 1020.9
20260506154849 51 0.0 0.0 0.00 0.00 0.00 82 1020.6
20260506153931 49 0.0 0.0 0.00 0.00 0.00 85 1020.9
20260506152850 50 0.0 0.0 0.00 0.00 0.00 81 1020.7
20260506151909 50 0.0 0.0 0.00 0.00 0.00 81 1020.7
20260506150849 50 0.0 0.0 0.00 0.00 0.00 88 1020.7
20260506145850 48 0.0 0.0 0.00 0.00 0.00 95 1020.7
20260506144849 46 0.0 0.0 0.00 0.00 0.00 99 1020.7
20260506143910 45 0.0 0.0 0.00 0.00 0.00 99 1020.4
20260506142849 44 0.0 0.0 0.00 0.00 0.00 99 1020.4
20260506141849 43 0.0 0.0 0.00 0.00 0.00 99 1020.2
20260506140848 42 0.0 0.0 0.00 0.00 0.00 99 1020.2
20260506135850 42 0.0 0.0 0.00 0.00 0.00 99 1020.4
20260506134848 42 0.0 0.0 0.00 0.00 0.00 98 1020.0
20260506133910 42 0.0 0.0 0.00 0.00 0.00 99 1020.1
20260506132849 42 0.0 0.0 0.00 0.00 0.00 99 1020.1
20260506131850 42 0.0 0.0 0.00 0.00 0.00 98 1019.8
20260506130849 42 0.0 0.0 0.00 0.00 0.00 98 1019.8
20260506125848 43 0.0 0.0 0.00 0.00 0.00 99 1019.8
20260506124850 43 0.0 0.0 0.00 0.00 0.00 99 1019.7
20260506123849 44 0.0 0.0 0.00 0.00 0.00 99 1019.6
20260506122849 44 0.0 0.0 0.00 0.00 0.00 99 1019.6
20260506121849 44 0.0 0.0 0.00 0.00 0.00 99 1019.6
20260506120912 44 0.0 0.0 0.00 0.00 0.00 99 1019.3
20260506115850 44 0.0 0.0 0.00 0.00 0.00 99 1019.9
20260506114848 44 0.0 0.0 0.00 0.00 0.00 99 1019.7
20260506113910 44 0.0 0.0 0.00 0.00 0.00 99 1019.6
20260506112850 44 0.0 0.0 0.00 0.00 0.00 99 1019.4
20260506111849 44 0.0 0.0 0.00 0.00 0.00 99 1019.6
20260506110852 44 0.0 0.0 0.00 0.00 0.00 99 1019.3
20260506105848 44 0.0 0.0 0.00 0.00 0.00 99 1019.3
20260506104848 44 0.0 0.0 0.00 0.00 0.00 99 1019.2
20260506103909 44 0.0 0.0 0.00 0.00 0.00 99 1019.1
20260506102849 44 0.0 0.0 0.00 0.00 0.00 99 1019.2
20260506101850 44 0.0 0.0 0.00 0.00 0.00 99 1019.1
20260506100849 43 0.0 0.0 0.00 0.00 0.00 99 1019.2
20260506095850 43 0.0 0.0 0.00 0.00 0.00 99 1019.2
20260506094848 43 0.0 0.0 0.00 0.00 0.00 99 1019.0
20260506093850 43 0.0 0.0 0.00 0.00 0.00 99 1018.8
20260506092910 43 0.0 0.0 0.00 0.00 0.00 99 1019.1
20260506091851 43 0.0 0.0 0.00 0.00 0.00 99 1019.0
20260506090849 43 0.0 0.0 0.00 0.00 0.00 99 1019.3
20260506085850 42 0.0 0.0 0.00 0.00 0.00 99 1019.1
20260506084849 42 0.0 0.0 0.00 0.00 0.00 99 1019.0
20260506083849 42 0.0 0.0 0.00 0.00 0.00 99 1019.1
20260506082850 42 0.0 0.0 0.00 0.00 0.00 99 1018.9
20260506081849 42 0.0 0.0 0.00 0.00 0.00 99 1019.2
20260506080849 42 0.0 0.0 0.00 0.00 0.00 99 1018.8
20260506072852 42 0.0 0.0 0.00 0.00 0.00 99 1019.1
20260506071849 42 0.0 0.0 0.00 0.00 0.00 99 1018.8
20260506070850 42 0.0 0.0 0.00 0.00 0.00 99 1018.6
20260506061849 42 0.0 0.0 0.00 0.00 0.00 99 1018.2
20260506060849 41 0.0 0.0 0.00 0.00 0.00 99 1018.2
20260506050849 41 0.0 0.0 0.00 0.00 0.00 99 1017.8
20260506044850 41 0.0 0.0 0.00 0.00 0.00 99 1017.8
20260506043852 41 0.0 0.0 0.00 0.00 0.00 99 1017.6
20260506042849 42 0.0 0.0 0.00 0.00 0.00 99 1017.7
20260506041848 42 0.0 0.0 0.00 0.00 0.00 99 1017.3
20260506040850 43 0.0 0.0 0.00 0.00 0.00 99 1017.3
20260506035848 44 0.0 0.0 0.00 0.00 0.00 99 1017.4
20260506034851 44 0.0 0.0 0.00 0.00 0.00 99 1017.0
20260506033848 44 0.0 0.0 0.00 0.00 0.00 99 1016.8
20260506032934 45 0.0 0.0 0.00 0.00 0.00 99 1016.7
20260506031849 44 0.0 0.0 0.00 0.00 0.00 99 1016.7
20260506030849 45 0.0 0.0 0.00 0.00 0.00 99 1016.6
20260506025848 45 0.0 0.0 0.00 0.00 0.00 99 1016.4
20260506024848 45 0.0 0.0 0.00 0.00 0.00 99 1016.0
20260506023848 45 0.0 0.0 0.00 0.00 0.00 99 1016.2
20260506022849 45 0.0 0.0 0.00 0.00 0.00 99 1016.0
20260506021914 44 0.0 0.0 0.00 0.00 0.00 99 1015.8
20260506020911 45 0.0 0.0 0.00 0.00 0.00 99 1015.8
20260506015952 45 0.0 0.0 0.00 0.00 0.00 99 1015.8
20260506014911 45 0.0 0.0 0.00 0.00 0.00 99 1015.3
20260506013910 45 0.0 0.0 0.00 0.00 0.00 99 1015.6
20260506012852 44 0.0 0.0 0.00 0.00 0.00 99 1015.6
20260506011850 45 0.0 0.0 0.00 0.00 0.00 99 1015.6
20260506010849 45 0.0 0.0 0.00 0.00 0.00 99 1015.6
20260506005851 45 0.0 0.0 0.00 0.00 0.00 99 1015.7
20260506004849 45 0.0 0.0 0.00 0.00 0.00 99 1015.7
20260506003850 44 0.0 0.0 0.00 0.00 0.00 99 1015.3
20260506002852 44 0.0 0.0 0.00 0.00 0.00 99 1015.5
20260506001849 44 0.0 0.0 0.00 0.00 0.00 99 1015.2
20260506000849 44 0.0 0.0 0.00 0.00 0.00 99 1015.2
20260505235849 44 0.0 0.0 0.00 0.00 0.00 99 1015.1
20260505234851 44 0.0 0.0 0.00 0.00 0.00 99 1014.9
20260505233912 44 0.0 0.0 0.00 0.00 0.00 99 1015.3
20260505232849 45 0.0 0.0 0.00 0.00 0.00 99 1015.3
20260505231849 44 0.0 0.0 0.00 0.00 0.00 99 1015.2
20260505230912 44 0.0 0.0 0.00 0.00 0.00 99 1015.3
20260505225850 43 0.0 0.0 0.00 0.00 0.00 99 1015.3
20260505224850 43 0.0 0.0 0.00 0.00 0.00 99 1015.5
20260505223852 44 0.0 0.0 0.00 0.00 0.00 99 1015.5
20260505222914 44 0.0 0.0 0.00 0.00 0.00 99 1015.5
20260505221849 43 0.0 0.0 0.00 0.00 0.00 99 1015.8
20260505220849 43 0.0 0.0 0.00 0.00 0.00 99 1015.5
20260505215849 43 0.0 0.0 0.00 0.00 0.00 99 1015.8
20260505214848 43 0.0 0.0 0.00 0.00 0.00 99 1015.7
20260505213849 43 0.0 0.0 0.00 0.00 0.00 99 1015.6
20260505212849 43 0.0 0.0 0.00 0.00 0.00 99 1015.8
20260505211850 43 0.0 0.0 0.00 0.00 0.00 99 1016.0
20260505210910 43 0.0 0.0 0.00 0.00 0.00 99 1016.0
20260505205849 43 0.0 0.0 0.00 0.00 0.00 99 1015.8
20260505204850 43 0.0 0.0 0.00 0.00 0.00 99 1016.0
20260505203853 44 0.0 0.0 0.00 0.00 0.00 99 1015.8
20260505202850 43 0.0 0.0 0.00 0.00 0.00 99 1015.8
20260505201848 43 0.0 0.0 0.00 0.00 0.00 99 1015.7
20260505200849 43 0.0 0.0 0.00 0.00 0.00 99 1015.7
20260505195849 43 0.0 0.0 0.00 0.00 0.00 99 1015.7
20260505194909 43 0.0 0.0 0.00 0.00 0.00 99 1015.6
20260505193849 43 0.0 0.0 0.00 0.00 0.00 99 1015.6
20260505192910 43 0.0 0.0 0.00 0.00 0.00 99 1015.8
20260505191850 43 0.0 0.0 0.00 0.00 0.00 99 1015.7
20260505190908 42 0.0 0.0 0.00 0.00 0.00 99 1015.6
20260505185849 42 0.0 0.0 0.00 0.00 0.00 99 1015.6
20260505184914 42 0.0 0.0 0.00 0.00 0.00 99 1015.6
20260505183849 43 0.0 0.0 0.00 0.00 0.00 99 1015.5
20260505182850 42 0.0 0.0 0.00 0.00 0.00 99 1015.5
20260505181848 42 0.0 0.0 0.00 0.00 0.00 99 1015.3
20260505180848 42 0.0 0.0 0.00 0.00 0.00 99 1015.1